WX2DX-2 Weather Reports


Display with metric or nautical units.
time (UTC)temp
F
wind
direction
speed
MPH
gust
MPH
rain 1hr
in
rain 24hr
in
rain mn
in
humidity
%
barometer
mb
20260902171522 71 178 2.0 5.0 0.00 0.53 0.53 94 1018.7
20260902170021 70 229 3.0 7.0 0.00 0.53 0.53 96 1019.1
20260902164517 69 225 2.0 5.0 0.00 0.53 0.53 96 1019.3
20260902163015 68 269 1.0 2.0 0.01 0.53 0.53 96 1019.6
20260902161514 68 212 1.0 3.0 0.02 0.53 0.53 96 1019.3
20260902160016 68 310 0.0 3.0 0.04 0.53 0.53 96 1020.0
20260902154516 68 325 1.0 2.0 0.06 0.53 0.53 95 1018.7
20260902153012 68 50 0.0 4.0 0.09 0.52 0.52 95 1019.1
20260902151512 68 202 0.0 2.0 0.20 0.51 0.51 94 1020.0
20260902150014 68 175 1.0 4.0 0.49 0.49 0.49 94 1019.7
20260902144511 69 195 3.0 12.0 0.47 0.47 0.47 92 1019.5
20260902143014 70 269 5.0 15.0 0.43 0.43 0.43 91 1019.6
20260902141511 72 256 4.0 14.0 0.27 0.27 0.27 92 1019.7
20260902140008 73 227 0.0 0.0 0.00 0.00 0.00 92 1018.5
20260902134505 73 227 0.0 2.0 0.00 0.00 0.00 92 1018.2
20260902133005 73 210 1.0 3.0 0.00 0.00 0.00 92 1017.9
20260902131504 73 211 1.0 3.0 0.00 0.00 0.00 92 1017.8
20260902130103 73 210 1.0 3.0 0.00 0.00 0.00 93 1018.1
20260902124502 72 186 1.0 3.0 0.00 0.00 0.00 94 1018.2
20260902123002 72 205 1.0 3.0 0.00 0.00 0.00 96 1018.2
20260902121604 72 265 1.0 3.0 0.00 0.00 0.00 97 1018.0
20260902120057 71 238 1.0 3.0 0.00 0.00 0.00 97 1017.6
20260902114554 69 184 0.0 0.0 0.00 0.00 0.00 97 1017.8
20260902113107 68 184 1.0 3.0 0.00 0.00 0.00 97 1017.6
20260902111556 66 317 0.0 0.0 0.00 0.00 0.00 96 1017.5
20260902110047 66 317 0.0 1.0 0.00 0.00 0.00 95 1017.4
20260902104545 67 317 0.0 2.0 0.00 0.00 0.00 96 1017.2
20260902103048 67 317 1.0 2.0 0.00 0.00 0.00 96 1017.2
20260902101544 67 317 0.0 0.0 0.00 0.00 0.00 95 1017.3
20260902100042 67 317 0.0 0.0 0.00 0.00 0.00 96 1017.4
20260902094548 67 317 0.0 0.0 0.00 0.02 0.00 96 1017.6
20260902093040 67 317 0.0 1.0 0.00 0.02 0.00 95 1017.6
20260902091545 67 317 0.0 1.0 0.00 0.02 0.00 95 1017.6
20260902090037 68 317 0.0 2.0 0.00 0.02 0.00 95 1017.6
20260902084535 68 317 0.0 1.0 0.00 0.02 0.00 95 1017.4
20260902083034 69 317 0.0 1.0 0.00 0.02 0.00 95 1017.4
20260902081533 69 317 0.0 0.0 0.00 0.02 0.00 94 1017.4
20260902080034 69 317 0.0 0.0 0.00 0.02 0.00 95 1017.1
20260902074530 70 317 0.0 0.0 0.00 0.02 0.00 94 1017.1
20260902073028 70 317 0.0 0.0 0.00 0.02 0.00 94 1017.2
20260902071529 71 317 0.0 0.0 0.00 0.02 0.00 94 1017.4
20260902070026 71 317 0.0 2.0 0.00 0.02 0.00 94 1017.6
20260902064523 71 55 0.0 0.0 0.00 0.02 0.00 94 1017.7
20260902063022 71 55 0.0 0.0 0.00 0.02 0.00 94 1017.9
20260902061527 71 55 0.0 2.0 0.00 0.02 0.00 93 1017.9
20260902060020 71 107 0.0 2.0 0.00 0.02 0.00 93 1017.7
20260902054518 72 61 0.0 0.0 0.00 0.02 0.00 92 1017.8
20260902053027 72 31 0.0 2.0 0.00 0.02 0.00 92 1017.8
20260902051514 72 31 0.0 1.0 0.00 0.02 0.00 91 1017.8
20260902050013 72 31 0.0 0.0 0.00 0.02 0.00 91 1017.8
20260902044511 73 31 0.0 2.0 0.00 0.02 0.00 90 1017.8
20260902043007 73 53 0.0 2.0 0.00 0.02 0.00 89 1017.7
20260902041507 74 45 0.0 2.0 0.00 0.02 0.00 89 1017.5
20260902040002 74 69 2.0 3.0 0.00 0.02 0.00 88 1017.3
20260902034501 75 348 0.0 3.0 0.00 0.02 0.02 88 1017.1
20260902033111 75 28 2.0 5.0 0.00 0.02 0.02 86 1016.9
20260902031600 76 47 2.0 5.0 0.00 0.02 0.02 86 1016.8
20260902030105 76 93 2.0 4.0 0.00 0.02 0.02 90 1016.7
20260902024558 77 86 1.0 4.0 0.00 0.02 0.02 89 1016.5
20260902023111 77 29 1.0 3.0 0.00 0.02 0.02 87 1016.1
20260902021615 78 308 1.0 2.0 0.00 0.02 0.02 85 1016.0
20260902020100 79 340 3.0 8.0 0.00 0.02 0.02 82 1015.5
20260902014557 80 326 5.0 13.0 0.00 0.02 0.02 80 1015.4
20260902013056 81 269 2.0 7.0 0.00 0.02 0.02 78 1015.7
20260902011556 81 262 1.0 3.0 0.00 0.02 0.02 77 1016.1
20260902010101 82 266 2.0 9.0 0.00 0.02 0.02 76 1015.7
20260902004555 82 234 4.0 10.0 0.00 0.02 0.02 76 1015.7
20260902003054 82 341 1.0 11.0 0.00 0.02 0.02 77 1015.6
20260902001554 82 264 6.0 11.0 0.00 0.02 0.02 77 1014.7
20260902000058 82 242 2.0 9.0 0.00 0.02 0.02 77 1014.6
20260901234610 82 272 3.0 10.0 0.00 0.02 0.02 79 1014.5
20260901233053 82 266 2.0 7.0 0.00 0.02 0.02 79 1014.9
20260901231553 82 281 3.0 7.0 0.00 0.02 0.02 78 1014.4
20260901230133 83 254 1.0 6.0 0.00 0.02 0.02 76 1014.6
20260901224551 84 278 3.0 7.0 0.00 0.02 0.02 74 1014.6
20260901223108 86 265 2.0 9.0 0.00 0.02 0.02 74 1014.5
20260901221549 86 257 2.0 8.0 0.00 0.02 0.02 72 1014.7
20260901220058 87 261 2.0 9.0 0.00 0.02 0.02 71 1014.7
20260901214548 87 263 4.0 15.0 0.00 0.02 0.02 70 1014.6
20260901213049 87 286 3.0 9.0 0.00 0.02 0.02 71 1014.5
20260901211552 87 296 3.0 6.0 0.00 0.02 0.02 71 1014.6
20260901210048 87 248 3.0 9.0 0.00 0.02 0.02 70 1014.8
20260901204546 87 232 5.0 11.0 0.00 0.02 0.02 72 1014.8
20260901203044 87 297 5.0 10.0 0.00 0.02 0.02 72 1014.9
20260901201541 86 203 2.0 15.0 0.00 0.02 0.02 72 1014.8
20260901200053 86 268 6.0 14.0 0.00 0.02 0.02 71 1014.8
20260901194558 87 270 4.0 10.0 0.00 0.02 0.02 69 1014.8
20260901193039 88 230 3.0 14.0 0.00 0.02 0.02 70 1015.0
20260901191538 88 242 8.0 14.0 0.00 0.02 0.02 68 1014.9
20260901190036 88 170 5.0 12.0 0.00 0.02 0.02 71 1015.2
20260901184535 87 269 5.0 13.0 0.00 0.02 0.02 69 1015.3
20260901183041 87 339 6.0 16.0 0.00 0.02 0.02 69 1015.4
20260901181540 87 268 1.0 10.0 0.00 0.02 0.02 68 1015.3
20260901180033 87 263 4.0 14.0 0.00 0.02 0.02 71 1015.5
20260901174531 88 277 2.0 12.0 0.00 0.02 0.02 70 1015.5
20260901173027 88 258 2.0 10.0 0.00 0.02 0.02 73 1015.3